Location: Asheville, NC
(35.6000°N, 82.5500°W)
Time: 19:53:08
(UTC-04:00)

Vanguard 2 - Pass Details

Date: 11 March 2018
Orbit: 553 x 2939 km, 32.9° (Epoch: 19 June)

Event Time Altitude Azimuth Distance (km) Brightness Sun altitude
Rises 09:15:00 0° 185° (S) 5,126 11.9 16.8°
Reaches altitude 10° 09:19:46 10° 167° (SSE) 4,563 12.0 17.8°
Maximum altitude 09:27:40 18° 131° (SE) 4,499 13.1 19.3°
Drops below altitude 10° 09:37:03 10° 96° (E) 5,602 13.7 21.1°
Sets 09:43:53 0° 81° (E) 6,776 13.3 22.4°
